Ephrata, WA

6:43 PM PDT on March 22, 2017 (GMT -0700)
Ephrata Municipal

Weather History for KEPH - May, 2013

Change the Weather History Date:

Sunday, May 19, 2013

  Actual Average Record
Temperature  
Mean Temperature 64 °F 60 °F  
Max Temperature 75 °F 73 °F 87 °F (1985)
Min Temperature 52 °F 47 °F 34 °F (2003)
Degree Days  
Heating Degree Days 1 6  
Month to date heating degree days 60 157  
Since 1 July heating degree days 5383 5854  
Cooling Degree Days 0 1  
Month to date cooling degree days 57 16  
Year to date cooling degree days 57 18  
Growing Degree Days 13 (Base 50)    
Moisture  
Dew Point 35 °F    
Average Humidity 37    
Maximum Humidity 50    
Minimum Humidity 23    
Precipitation  
Precipitation 0.00 in 0.03 in 0.33 in (2010)
Month to date precipitation T 0.35  
Year to date precipitation 1.52 3.16  
Sea Level Pressure  
Sea Level Pressure 30.18 in    
Wind  
Wind Speed 11 mph (WNW)    
Max Wind Speed 20 mph    
Max Gust Speed 24 mph    
Visibility 10 miles    
Events      
T = Trace of Precipitation, MM = Missing Value Source: NWS Daily Summary

Daily Weather History Graph

Daily Weather History Graph

Search for Another Location

Airport or City:

Trip Planner

Search our weather history database for the weather conditions in past years. The results will help you decide how hot, cold, wet, or windy it might be!

Date:

Astronomy

May. 19, 2013 Rise Set
Actual Time 5:16 AM PDT 8:33 PM PDT
Civil Twilight 4:39 AM PDT 9:10 PM PDT
Nautical Twilight 3:51 AM PDT 9:59 PM PDT
Astronomical Twilight 2:50 AM PDT 11:01 PM PDT
Moon 2:19 PM PDT (5/19) 2:07 AM PDT (5/19)
Length of Visible Light 16h 30m
Length of Day
15h 16m
Waxing Gibbous, 66% of the Moon is Illuminated
May 19
Waxing Gibbous
May 24
Full
May 31
Last Quarter
Jun 8
New
Jun 16
First Quarter

Hourly Weather History & Observations

Time (PDT) Temp. Dew Point Humidity Pressure Visibility Wind Dir Wind Speed Gust Speed Precip Events Conditions
12:53 AM 57.0 °F 36.0 °F 45% 30.11 in 10.0 mi NW 13.8 mph - N/A   Overcast
1:53 AM 55.0 °F 35.1 °F 47% 30.12 in 10.0 mi NW 16.1 mph 21.9 mph N/A   Overcast
2:53 AM 55.0 °F 35.1 °F 47% 30.13 in 10.0 mi NW 15.0 mph 21.9 mph N/A   Overcast
3:53 AM 54.0 °F 34.0 °F 47% 30.14 in 10.0 mi WNW 16.1 mph - N/A   Mostly Cloudy
5:53 AM 53.1 °F 35.1 °F 50% 30.19 in 10.0 mi WNW 5.8 mph - N/A   Mostly Cloudy
6:53 AM 55.0 °F 35.1 °F 47% 30.19 in 10.0 mi NW 10.4 mph - N/A   Clear
7:53 AM 60.1 °F 34.0 °F 38% 30.21 in 10.0 mi NW 15.0 mph 20.7 mph N/A   Clear
8:53 AM 63.0 °F 34.0 °F 34% 30.22 in 10.0 mi NW 15.0 mph 21.9 mph N/A   Mostly Cloudy
9:53 AM 64.9 °F 34.0 °F 32% 30.22 in 10.0 mi North 11.5 mph - N/A   Partly Cloudy
10:53 AM 68.0 °F 34.0 °F 28% 30.22 in 10.0 mi NNW 9.2 mph - N/A   Clear
12:53 PM 71.1 °F 34.0 °F 26% 30.20 in 10.0 mi WSW 8.1 mph 19.6 mph N/A   Scattered Clouds
1:53 PM 72.0 °F 35.1 °F 26% 30.19 in 10.0 mi West 8.1 mph 17.3 mph N/A   Clear
2:53 PM 73.0 °F 34.0 °F 24% 30.19 in 10.0 mi WSW 9.2 mph 17.3 mph N/A   Clear
3:53 PM 73.9 °F 34.0 °F 23% 30.18 in 10.0 mi WSW 11.5 mph 19.6 mph N/A   Clear
4:53 PM 73.9 °F 34.0 °F 23% 30.17 in 10.0 mi WSW 11.5 mph 17.3 mph N/A   Partly Cloudy
5:53 PM 73.9 °F 35.1 °F 24% 30.16 in 10.0 mi SSW 10.4 mph 17.3 mph N/A   Clear
6:53 PM 72.0 °F 36.0 °F 27% 30.17 in 10.0 mi SW 11.5 mph - N/A   Clear
7:53 PM 69.1 °F 37.0 °F 31% 30.18 in 10.0 mi WSW 10.4 mph - N/A   Clear
9:53 PM 62.1 °F 36.0 °F 38% 30.20 in 10.0 mi WNW 15.0 mph - N/A   Clear
10:53 PM 60.1 °F 36.0 °F 41% 30.19 in 10.0 mi WNW 15.0 mph 23.0 mph N/A   Clear
11:53 PM 59.0 °F 36.0 °F 42% 30.19 in 10.0 mi WNW 15.0 mph - N/A   Clear